Weather History for KIOB - February, 2013

Change the Weather History Date:

Monday, February 11, 2013

  Actual Average Record
Temperature  
Mean Temperature 44 °F -  
Max Temperature 53 °F 44 °F 53 °F (2013)
Min Temperature 35 °F 23 °F 5 °F (2014)
Degree Days  
Heating Degree Days 21    
Moisture  
Dew Point 37 °F    
Average Humidity 66    
Maximum Humidity 94    
Minimum Humidity 44    
Precipitation  
Precipitation 0.00 in - - ()
Sea Level Pressure  
Sea Level Pressure 29.96 in    
Wind  
Wind Speed 13 mph (West)    
Max Wind Speed 24 mph    
Max Gust Speed 34 mph    
Visibility 10 miles    
Events Rain    
Averages and records for this station are not official NWS values.
T = Trace of Precipitation, MM = Missing Value Source: NWS Daily Summary

Daily Weather History Graph

Daily Weather History Graph

Search for Another Location

Airport or City:

Trip Planner

Search our weather history database for the weather conditions in past years. The results will help you decide how hot, cold, wet, or windy it might be!

Date:

Astronomy

Feb. 11, 2013 Rise Set
Actual Time 7:30 AM EST 6:10 PM EST
Civil Twilight 7:03 AM EST 6:37 PM EST
Nautical Twilight 6:32 AM EST 7:08 PM EST
Astronomical Twilight 6:01 AM EST 7:39 PM EST
Moon 7:56 AM EST (2/11) 8:03 PM EST (2/11)
Length of Visible Light 11h 34m
Length of Day
10h 40m
Waxing Crescent, 3% of the Moon is Illuminated
Feb 11
Waxing Crescent
Feb 17
First Quarter
Feb 25
Full
Mar 4
Last Quarter
Mar 11
New

Hourly Weather History & Observations

Time (EST) Temp. Windchill Dew Point Humidity Pressure Visibility Wind Dir Wind Speed Gust Speed Precip Events Conditions
12:15 AM 50.0 °F - 44.6 °F 82% 29.87 in 10.0 mi SW 10.4 mph 17.3 mph N/A   Overcast
12:35 AM 50.0 °F - 44.6 °F 82% 29.86 in 10.0 mi SSW 12.7 mph - N/A Rain Light Rain
12:55 AM 51.8 °F - 46.4 °F 82% 29.87 in 10.0 mi SW 11.5 mph 19.6 mph N/A   Overcast
1:15 AM 51.8 °F - 46.4 °F 82% 29.87 in 10.0 mi SW 12.7 mph 20.7 mph N/A   Overcast
1:35 AM 53.6 °F - 46.4 °F 77% 29.87 in 10.0 mi SW 11.5 mph 21.9 mph N/A   Overcast
1:55 AM 53.6 °F - 48.2 °F 82% 29.88 in 10.0 mi WSW 11.5 mph 20.7 mph N/A   Overcast
2:15 AM 53.6 °F - 50.0 °F 88% 29.88 in 10.0 mi WSW 11.5 mph 20.7 mph N/A   Overcast
2:35 AM 53.6 °F - 50.0 °F 88% 29.88 in 10.0 mi WSW 12.7 mph - N/A Rain Light Rain
2:55 AM 53.6 °F - 50.0 °F 88% 29.88 in 10.0 mi WSW 9.2 mph - N/A   Overcast
3:15 AM 53.6 °F - 50.0 °F 88% 29.88 in 10.0 mi WSW 10.4 mph - N/A   Overcast
3:35 AM 53.6 °F - 50.0 °F 88% 29.88 in 10.0 mi WSW 11.5 mph - N/A   Overcast
3:55 AM 53.6 °F - 50.0 °F 88% 29.87 in 10.0 mi WSW 10.4 mph - N/A   Scattered Clouds
4:15 AM 53.6 °F - 50.0 °F 88% 29.87 in 10.0 mi WSW 12.7 mph - N/A   Mostly Cloudy
4:35 AM 53.6 °F - 50.0 °F 88% 29.87 in 10.0 mi WSW 10.4 mph - N/A   Overcast
4:55 AM 53.6 °F - 50.0 °F 88% 29.88 in 10.0 mi WSW 12.7 mph 16.1 mph N/A   Mostly Cloudy
5:15 AM 53.6 °F - 50.0 °F 88% 29.88 in 10.0 mi WSW 10.4 mph - N/A   Overcast
5:35 AM 53.6 °F - 50.0 °F 88% 29.89 in 10.0 mi West 11.5 mph 19.6 mph N/A   Scattered Clouds
5:55 AM 53.6 °F - 50.0 °F 88% 29.89 in 10.0 mi West 11.5 mph 18.4 mph N/A   Clear
6:15 AM 51.8 °F - 50.0 °F 94% 29.88 in 10.0 mi West 11.5 mph 18.4 mph N/A   Clear
6:35 AM 51.8 °F - 48.2 °F 88% 29.89 in 10.0 mi West 11.5 mph 20.7 mph N/A   Scattered Clouds
6:55 AM 51.8 °F - 46.4 °F 82% 29.89 in 10.0 mi West 12.7 mph 24.2 mph N/A   Clear
7:15 AM 51.8 °F - 44.6 °F 76% 29.89 in 10.0 mi WSW 13.8 mph 24.2 mph N/A   Clear
7:35 AM 51.8 °F - 42.8 °F 71% 29.91 in 10.0 mi West 13.8 mph 20.7 mph N/A   Clear
7:55 AM 51.8 °F - 42.8 °F 71% 29.91 in 10.0 mi West 21.9 mph 27.6 mph N/A   Clear
8:15 AM 51.8 °F - 42.8 °F 71% 29.92 in 10.0 mi West 13.8 mph 21.9 mph N/A   Scattered Clouds
8:35 AM 51.8 °F - 42.8 °F 71% 29.93 in 10.0 mi West 15.0 mph 21.9 mph N/A   Clear
8:55 AM 51.8 °F - 41.0 °F 67% 29.93 in 10.0 mi West 19.6 mph 31.1 mph N/A   Clear
9:15 AM 51.8 °F - 39.2 °F 62% 29.94 in 10.0 mi West 24.2 mph 34.5 mph N/A   Clear
9:35 AM 51.8 °F - 41.0 °F 67% 29.94 in 10.0 mi West 19.6 mph 31.1 mph N/A   Clear
9:55 AM 51.8 °F - 37.4 °F 58% 29.94 in 10.0 mi West 21.9 mph 29.9 mph N/A   Clear
10:15 AM 51.8 °F - 37.4 °F 58% 29.95 in 10.0 mi West 15.0 mph 25.3 mph N/A   Clear
10:35 AM 51.8 °F - 35.6 °F 54% 29.96 in 10.0 mi West 16.1 mph 23.0 mph N/A   Clear
10:55 AM 50.0 °F - 32.0 °F 50% 29.96 in 10.0 mi West 20.7 mph 33.4 mph N/A   Clear
11:15 AM 50.0 °F - 32.0 °F 50% 29.98 in 10.0 mi West 21.9 mph 33.4 mph N/A   Clear
11:35 AM 51.8 °F - 32.0 °F 47% 29.98 in 10.0 mi West 17.3 mph 29.9 mph N/A   Clear
11:55 AM 51.8 °F - 32.0 °F 47% 29.98 in 10.0 mi West 17.3 mph 31.1 mph N/A   Clear
12:15 PM 50.0 °F - 32.0 °F 50% 29.97 in 10.0 mi West 21.9 mph 33.4 mph N/A   Clear
12:35 PM 51.8 °F - 32.0 °F 47% 29.97 in 10.0 mi West 16.1 mph 26.5 mph N/A   Clear
12:55 PM 51.8 °F - 32.0 °F 47% 29.96 in 10.0 mi West 20.7 mph 32.2 mph N/A   Clear
1:15 PM 51.8 °F - 30.2 °F 44% 29.96 in 10.0 mi West 20.7 mph 26.5 mph N/A   Clear
1:35 PM 51.8 °F - 30.2 °F 44% 29.97 in 10.0 mi West 20.7 mph 31.1 mph N/A   Clear
1:55 PM 51.8 °F - 30.2 °F 44% 29.97 in 10.0 mi West 20.7 mph 31.1 mph N/A   Clear
2:15 PM 51.8 °F - 30.2 °F 44% 29.97 in 10.0 mi West 17.3 mph 28.8 mph N/A   Clear
2:35 PM 51.8 °F - 30.2 °F 44% 29.96 in 10.0 mi West 23.0 mph 33.4 mph N/A   Clear
2:55 PM 51.8 °F - 30.2 °F 44% 29.97 in 10.0 mi West 21.9 mph 31.1 mph N/A   Clear
3:15 PM 51.8 °F - 30.2 °F 44% 29.97 in 10.0 mi West 19.6 mph 31.1 mph N/A   Clear
3:35 PM 51.8 °F - 32.0 °F 47% 29.97 in 10.0 mi West 15.0 mph 27.6 mph N/A   Clear
3:55 PM 50.0 °F - 30.2 °F 47% 29.97 in 10.0 mi West 23.0 mph 28.8 mph N/A   Clear
4:15 PM 50.0 °F - 30.2 °F 47% 29.98 in 10.0 mi West 17.3 mph 27.6 mph N/A   Clear
4:35 PM 50.0 °F - 30.2 °F 47% 29.98 in 10.0 mi West 16.1 mph 24.2 mph N/A   Clear
4:55 PM 50.0 °F - 30.2 °F 47% 29.97 in 10.0 mi West 18.4 mph 31.1 mph N/A   Clear
5:55 PM 46.4 °F 40.4 °F 28.4 °F 50% 30.00 in 10.0 mi West 13.8 mph 25.3 mph N/A   Clear
6:15 PM 46.4 °F 41.1 °F 28.4 °F 50% 30.00 in 10.0 mi West 11.5 mph 21.9 mph N/A   Clear
6:35 PM 44.6 °F 39.7 °F 28.4 °F 53% 30.01 in 10.0 mi West 9.2 mph - N/A   Clear
6:55 PM 44.6 °F 38.8 °F 28.4 °F 53% 30.03 in 10.0 mi West 11.5 mph 16.1 mph N/A   Clear
7:15 PM 42.8 °F 38.0 °F 30.2 °F 61% 30.03 in 10.0 mi West 8.1 mph - N/A   Clear
7:35 PM 42.8 °F 37.0 °F 30.2 °F 61% 30.03 in 10.0 mi West 10.4 mph - N/A   Clear
7:55 PM 42.8 °F 36.2 °F 28.4 °F 57% 30.04 in 10.0 mi West 12.7 mph - N/A   Clear
8:15 PM 42.8 °F 37.0 °F 28.4 °F 57% 30.05 in 10.0 mi West 10.4 mph - N/A   Clear
8:35 PM 42.8 °F 37.5 °F 28.4 °F 57% 30.07 in 10.0 mi West 9.2 mph - N/A   Clear
8:55 PM 41.0 °F 35.8 °F 28.4 °F 61% 30.07 in 10.0 mi West 8.1 mph - N/A   Clear
9:15 PM 41.0 °F 35.8 °F 28.4 °F 61% 30.07 in 10.0 mi West 8.1 mph - N/A   Clear
9:35 PM 39.2 °F 34.2 °F 28.4 °F 65% 30.08 in 10.0 mi West 6.9 mph - N/A   Clear
9:55 PM 39.2 °F 34.2 °F 28.4 °F 65% 30.08 in 10.0 mi West 6.9 mph - N/A   Clear
10:15 PM 37.4 °F 32.1 °F 28.4 °F 70% 30.09 in 10.0 mi West 6.9 mph - N/A   Clear
10:35 PM 37.4 °F 32.1 °F 28.4 °F 70% 30.09 in 10.0 mi WSW 6.9 mph - N/A   Clear
11:15 PM 35.6 °F 29.9 °F 28.4 °F 75% 30.10 in 10.0 mi WSW 6.9 mph - N/A   Clear
11:35 PM 35.6 °F 29.9 °F 28.4 °F 75% 30.10 in 10.0 mi WSW 6.9 mph - N/A   Clear
11:55 PM 35.6 °F 29.9 °F 28.4 °F 75% 30.11 in 10.0 mi West 6.9 mph - N/A   Clear